Regional Weather Roundup
Issued by NWS

Home | Current Version | Previous Version | Text Only | Print | Product List | Glossary Off
Versions: 1 2 3 4 5 6 7 8 9 10 11 12 13 14 15 16 17 18 19 20 21 22 23 24 25 26 27 28 29 30 31 32 33 34 35 36 37 38 39 40 41 42 43 44 45 46 47 48 49 50

000
ASUS43 KIND 162000
RWRIN

WEATHER ROUNDUP FOR INDIANA
NATIONAL WEATHER SERVICE INDIANAPOLIS IN
400 PM EDT MON OCT 16 2017

NOTE: "FAIR" INDICATES FEW OR NO CLOUDS BELOW 12,000 FEET WITH NO
SIGNIFICANT WEATHER AND/OR OBSTRUCTIONS TO VISIBILITY.

* - STATION DOES NOT REPORT WEATHER SUCH AS PRECIPITATION OR FOG.

+ - STATION NOT QUALITY CONTROLLED BY THE NATIONAL WEATHER SERVICE.
    USE DATA WITH CAUTION...ESPECIALLY DEWPOINT AND RELATIVE
    HUMIDITY OBSERVATIONS.

INZ001>003-010>013-019-020-162100-
NORTHWEST INDIANA

CITY           SKY/WX    TMP DP  RH WIND       PRES   REMARKS
GARY /AIRPORT/ MOSUNNY   63  32  31 W14       30.26F
MONTICELLO +   MOSUNNY   61  33  34 W5        30.28F

$$

LMZ046-743>745-162100-
SOUTHERN LAKE MICHIGAN

STATION/POSITION TIME  TEMP    WIND        PRES    WAVE
                       AIR SEA DIR/SP/G            HT
                 (UTC) (F)     (DEG/KT/KT) (MB)    (FT)
BURNS HARBOR     1940   59     260/  9/ 11 1025.1F
MICHIGAN CITY    1930   56     240/  7/  8   N/A
5NW MICH CITY    1940   57 58  240/  6/  8   N/A     2

$$

INZ004-005-014>016-021>024-162100-
NORTH CENTRAL INDIANA

CITY           SKY/WX    TMP DP  RH WIND       PRES   REMARKS
ELKHART        MOSUNNY   59  36  41 W7        30.27F
GOSHEN         MOSUNNY   58  38  47 W9        30.27F
PERU/GRISSOM   PTSUNNY   61  37  41 W8        30.28F
SOUTH BEND     MOSUNNY   59  37  44 W8        30.27F

$$

INZ006>009-017-018-025>027-162100-
NORTHEAST INDIANA

CITY           SKY/WX    TMP DP  RH WIND       PRES   REMARKS
FORT WAYNE     MOSUNNY   60  36  40 W9        30.28F
KENDALLVILLE + PTSUNNY   59  38  45 W13G21    30.27F

$$

INZ028-029-035-036-043>045-051>053-162100-
WEST CENTRAL INDIANA

CITY           SKY/WX    TMP DP  RH WIND       PRES   REMARKS
LAFAYETTE      MOSUNNY   59  37  44 W9        30.29F
TERRE HAUTE    SUNNY     63  34  33 NW5       30.31F

$$

INZ030>032-037>040-046>048-054>057-064-065-162100-
CENTRAL INDIANA

CITY           SKY/WX    TMP DP  RH WIND       PRES   REMARKS
ANDERSON       PTSUNNY   59  37  44 NW12G17   30.28F
COLUMBUS       MOSUNNY   61  28  29 NW9       30.31F
INDIANAPOLIS   MOSUNNY   62  35  36 VRB6      30.31F
-EAGLE CREEK   MOSUNNY   61  36  39 W6        30.29F
KOKOMO +       MOSUNNY   61  37  41 W10G17    30.30F
MT COMFORT *+  MOSUNNY   61  45  55 NW5       30.31S
SHELBYVILLE    MOSUNNY   63  35  35 NW6       30.29F

$$

INZ033-034-041-042-049-050-058-059-162100-
EAST CENTRAL INDIANA

CITY           SKY/WX    TMP DP  RH WIND       PRES   REMARKS
MUNCIE         CLOUDY    63  36  36 NW9       30.29F
RICHMOND +     MOSUNNY   57  34  41 N12       30.29F

$$

INZ060-061-067>069-081>083-085>088-162100-
SOUTHWEST INDIANA

CITY           SKY/WX    TMP DP  RH WIND       PRES   REMARKS
EVANSVILLE     SUNNY     64  37  36 N6        30.32F
HUNTINGBURG +  SUNNY     61  39  44 VRB5      30.32F

$$

INZ062-063-066-070>080-084-089>092-162100-
SOUTH CENTRAL AND SOUTHEAST INDIANA

CITY           SKY/WX    TMP DP  RH WIND       PRES   REMARKS
BLOOMINGTON    SUNNY     61  32  33 W3        30.30F
MADISON *+     SUNNY     63  32  31 NW5       30.31F
SEYMOUR +      MOSUNNY   64  36  34 NW8       30.30F

$$




USA.gov is the U.S. government's official web portal to all federal, state and local government web resources and services.